When you browse on this site, cookies collect data to enhance your experience and personalize the content and advertising you see.
Visit our Privacy Policy to learn more. By continuing to use the site, you agree to this use of cookies and data.
  • In Portugal
  • List of Countries
  • For 7 days
  • Water Temperature
  • Satellite Maps
  • Weather Map
  • Weather Widgets
  • user-avatar
    Login

    Hourly Weather Grzebsk

    Today, 17 June, Monday

    Time Temperature Precipitation Wind Pressure Humidity
    00:00 +14°C° 0 mm 3 mps 751 mmHg 95%
    01:00 +13°C° 0 mm 3 mps 751 mmHg 95%
    02:00 +13°C° 0 mm 3 mps 751 mmHg 94%
    03:00 +13°C° 0 mm 3 mps 751 mmHg 93%
    04:00 +13°C° 0 mm 4 mps 751 mmHg 92%
    05:00 +14°C° 0 mm 4 mps 751 mmHg 89%
    06:00 +15°C° 0 mm 4 mps 752 mmHg 85%
    07:00 +17°C° 0 mm 4 mps 752 mmHg 82%
    08:00 +18°C° 0 mm 4 mps 752 mmHg 80%
    09:00 +19°C° 0 mm 4 mps 752 mmHg 78%
    10:00 +20°C° 0 mm 5 mps 752 mmHg 76%
    11:00 +21°C° 0 mm 5 mps 752 mmHg 74%
    12:00 +21°C° 0 mm 4 mps 752 mmHg 72%
    13:00 +22°C° 0 mm 4 mps 752 mmHg 70%
    14:00 +22°C° 0 mm 5 mps 752 mmHg 69%
    15:00 +22°C° 0 mm 5 mps 752 mmHg 68%
    16:00 +22°C° 0 mm 5 mps 752 mmHg 67%
    17:00 +21°C° 0 mm 4 mps 752 mmHg 71%
    18:00 +19°C° 0 mm 4 mps 752 mmHg 74%
    19:00 +18°C° 0 mm 3 mps 752 mmHg 78%
    20:00 +17°C° 0 mm 3 mps 753 mmHg 82%
    21:00 +15°C° 0 mm 2 mps 753 mmHg 86%
    22:00 +14°C° 0 mm 2 mps 753 mmHg 90%
    23:00 +14°C° 0 mm 2 mps 753 mmHg 90%

    Tomorrow, 18 June, Tuesday

    Time Temperature Precipitation Wind Pressure Humidity
    00:00 +13°C° 0 mm 2 mps 753 mmHg 90%
    01:00 +13°C° 0 mm 2 mps 753 mmHg 90%
    02:00 +13°C° 0 mm 2 mps 753 mmHg 89%
    03:00 +13°C° 0 mm 2 mps 753 mmHg 89%
    04:00 +12°C° 0 mm 2 mps 753 mmHg 89%
    05:00 +14°C° 0 mm 2 mps 753 mmHg 84%
    06:00 +16°C° 0 mm 2 mps 754 mmHg 79%
    07:00 +18°C° 0 mm 2 mps 754 mmHg 74%
    08:00 +19°C° 0 mm 2 mps 754 mmHg 69%
    09:00 +20°C° 0 mm 2 mps 753 mmHg 63%
    10:00 +23°C° 0 mm 2 mps 753 mmHg 58%
    11:00 +23°C° 0 mm 2 mps 753 mmHg 56%
    12:00 +24°C° 0 mm 2 mps 753 mmHg 54%
    13:00 +25°C° 0 mm 2 mps 752 mmHg 52%
    14:00 +25°C° 0 mm 2 mps 752 mmHg 54%
    15:00 +24°C° 0 mm 3 mps 752 mmHg 57%
    16:00 +24°C° 0 mm 3 mps 751 mmHg 59%
    17:00 +22°C° 0 mm 3 mps 751 mmHg 64%
    18:00 +21°C° 0 mm 2 mps 751 mmHg 70%
    19:00 +20°C° 0 mm 2 mps 750 mmHg 76%
    20:00 +19°C° 0 mm 2 mps 750 mmHg 76%
    21:00 +18°C° 0 mm 2 mps 751 mmHg 76%
    22:00 +17°C° 0 mm 3 mps 751 mmHg 77%
    23:00 +17°C° 0 mm 3 mps 750 mmHg 78%

    Day after tomorrow, 19 June, Wednesday

    Time Temperature Precipitation Wind Pressure Humidity
    00:00 +17°C° 0 mm 3 mps 750 mmHg 80%
    01:00 +16°C° 0 mm 3 mps 750 mmHg 82%
    02:00 +16°C° 0 mm 3 mps 749 mmHg 84%
    03:00 +16°C° 0 mm 3 mps 749 mmHg 85%
    04:00 +16°C° 0 mm 3 mps 749 mmHg 87%
    05:00 +15°C° 0 mm 4 mps 749 mmHg 85%
    06:00 +17°C° 0 mm 4 mps 749 mmHg 84%
    07:00 +18°C° 0 mm 4 mps 749 mmHg 82%
    08:00 +18°C° 0 mm 4 mps 748 mmHg 83%
    09:00 +18°C° 0 mm 4 mps 748 mmHg 84%
    10:00 +18°C° 0 mm 4 mps 748 mmHg 84%
    11:00 +19°C° 0 mm 5 mps 748 mmHg 84%
    12:00 +20°C° 0 mm 5 mps 747 mmHg 83%
    13:00 +21°C° 0 mm 5 mps 747 mmHg 82%
    14:00 +21°C° 0.1 mm 5 mps 747 mmHg 82%
    15:00 +22°C° 0.1 mm 5 mps 746 mmHg 81%
    16:00 +23°C° 0.1 mm 5 mps 746 mmHg 80%
    17:00 +23°C° 0.6 mm 4 mps 746 mmHg 83%
    18:00 +22°C° 0.6 mm 4 mps 745 mmHg 86%
    19:00 +22°C° 0.6 mm 3 mps 745 mmHg 88%
    20:00 +21°C° 0.2 mm 3 mps 745 mmHg 91%
    21:00 +20°C° 0.2 mm 2 mps 745 mmHg 93%
    22:00 +19°C° 0.2 mm 2 mps 745 mmHg 95%
    23:00 +19°C° 0 mm 2 mps 745 mmHg 95%

    20 June, Thursday

    Time Temperature Precipitation Wind Pressure Humidity
    00:00 +19°C° 0 mm 2 mps 745 mmHg 95%
    01:00 +18°C° 0 mm 2 mps 744 mmHg 95%
    02:00 +18°C° 0 mm 2 mps 745 mmHg 96%
    03:00 +18°C° 0 mm 2 mps 745 mmHg 96%
    04:00 +18°C° 0 mm 2 mps 745 mmHg 96%
    05:00 +20°C° 0 mm 2 mps 745 mmHg 92%
    06:00 +21°C° 0 mm 2 mps 745 mmHg 89%
    07:00 +23°C° 0 mm 2 mps 746 mmHg 85%
    08:00 +25°C° 0 mm 2 mps 746 mmHg 78%
    09:00 +26°C° 0 mm 2 mps 746 mmHg 71%
    10:00 +28°C° 0 mm 2 mps 747 mmHg 64%
    11:00 +28°C° 0 mm 2 mps 746 mmHg 60%
    12:00 +29°C° 0 mm 2 mps 746 mmHg 57%
    13:00 +30°C° 0 mm 2 mps 746 mmHg 53%
    14:00 +30°C° 0 mm 2 mps 746 mmHg 53%
    15:00 +30°C° 0 mm 2 mps 747 mmHg 53%
    16:00 +30°C° 0 mm 1 mps 747 mmHg 53%
    17:00 +29°C° 0.1 mm 1 mps 747 mmHg 59%
    18:00 +27°C° 0.1 mm 1 mps 747 mmHg 65%
    19:00 +26°C° 0.1 mm 1 mps 747 mmHg 71%
    20:00 +24°C° 0.2 mm 1 mps 747 mmHg 76%
    21:00 +23°C° 0.2 mm 2 mps 747 mmHg 82%
    22:00 +20°C° 0.2 mm 2 mps 748 mmHg 88%
    23:00 +20°C° 0.7 mm 2 mps 748 mmHg 90%

    21 June, Friday

    Time Temperature Precipitation Wind Pressure Humidity
    00:00 +19°C° 0.7 mm 2 mps 748 mmHg 93%
    01:00 +19°C° 0.7 mm 2 mps 748 mmHg 95%
    02:00 +19°C° 0.9 mm 2 mps 748 mmHg 96%
    03:00 +18°C° 0.9 mm 3 mps 748 mmHg 96%
    04:00 +18°C° 0.9 mm 3 mps 748 mmHg 97%
    05:00 +18°C° 0.3 mm 3 mps 748 mmHg 96%
    06:00 +18°C° 0.3 mm 3 mps 748 mmHg 96%
    07:00 +18°C° 0.3 mm 3 mps 748 mmHg 95%
    08:00 +18°C° 0 mm 3 mps 748 mmHg 93%
    09:00 +19°C° 0 mm 3 mps 748 mmHg 91%
    10:00 +20°C° 0 mm 3 mps 748 mmHg 89%
    11:00 +22°C° 0 mm 3 mps 748 mmHg 82%
    12:00 +25°C° 0 mm 3 mps 748 mmHg 75%
    13:00 +26°C° 0 mm 3 mps 748 mmHg 68%
    14:00 +26°C° 0.4 mm 3 mps 748 mmHg 68%
    15:00 +26°C° 0.4 mm 3 mps 747 mmHg 69%
    16:00 +26°C° 0.4 mm 3 mps 747 mmHg 70%
    17:00 +25°C° 0 mm 3 mps 747 mmHg 75%
    18:00 +24°C° 0 mm 3 mps 747 mmHg 81%
    19:00 +22°C° 0 mm 3 mps 747 mmHg 86%
    20:00 +21°C° 0 mm 3 mps 747 mmHg 90%
    21:00 +20°C° 0 mm 2 mps 747 mmHg 93%
    22:00 +19°C° 0 mm 2 mps 747 mmHg 96%
    23:00 +19°C° 0 mm 2 mps 747 mmHg 96%

    22 June, Saturday

    Time Temperature Precipitation Wind Pressure Humidity
    00:00 +19°C° 0 mm 2 mps 747 mmHg 96%
    01:00 +18°C° 0 mm 2 mps 747 mmHg 96%
    02:00 +18°C° 0 mm 2 mps 747 mmHg 97%
    03:00 +18°C° 0 mm 2 mps 747 mmHg 97%
    04:00 +18°C° 0 mm 2 mps 747 mmHg 97%
    05:00 +19°C° 0.1 mm 3 mps 747 mmHg 94%
    06:00 +21°C° 0.1 mm 3 mps 747 mmHg 91%
    07:00 +22°C° 0.1 mm 3 mps 747 mmHg 88%
    08:00 +24°C° 0 mm 3 mps 747 mmHg 83%
    09:00 +26°C° 0 mm 3 mps 746 mmHg 78%
    10:00 +27°C° 0 mm 3 mps 746 mmHg 73%
    11:00 +28°C° 1.2 mm 3 mps 746 mmHg 71%
    12:00 +28°C° 1.2 mm 3 mps 746 mmHg 69%
    13:00 +29°C° 1.2 mm 2 mps 746 mmHg 67%
    14:00 +28°C° 2.2 mm 3 mps 746 mmHg 70%
    15:00 +28°C° 2.2 mm 3 mps 745 mmHg 73%
    16:00 +27°C° 2.2 mm 3 mps 745 mmHg 75%
    17:00 +26°C° 2.2 mm 3 mps 745 mmHg 80%
    18:00 +24°C° 2.2 mm 3 mps 745 mmHg 85%
    19:00 +22°C° 2.2 mm 3 mps 745 mmHg 89%
    20:00 +21°C° 0.4 mm 3 mps 745 mmHg 92%
    21:00 +20°C° 0.4 mm 4 mps 745 mmHg 94%
    22:00 +19°C° 0.4 mm 4 mps 745 mmHg 97%
    23:00 +19°C° 0 mm 3 mps 745 mmHg 97%
    Show more